Weather History for KNAK - November, 2012

Change the Weather History Date:

Sunday, November 18, 2012

  Actual Average (KBWI) Record (KBWI)
Temperature  
Mean Temperature 50 °F 46 °F  
Max Temperature 53 °F 56 °F 78 °F (1938)
Min Temperature 46 °F 36 °F 20 °F (1959)
Degree Days  
Heating Degree Days 16 19  
Month to date heating degree days 298  
Since 1 July heating degree days 645  
Cooling Degree Days 0 0  
Month to date cooling degree days 0  
Year to date cooling degree days 1163  
Moisture  
Dew Point 40 °F    
Average Humidity 70    
Maximum Humidity 80    
Minimum Humidity 59    
Precipitation  
Precipitation 0.00 in 0.11 in 0.84 in (1886)
Month to date precipitation 1.95  
Year to date precipitation 37.16  
Snow  
Snow 0.00 in 0.00 in T in (2008)
Month to date snowfall 0.1  
Since 1 July snowfall 0.1  
Snow Depth -    
Sea Level Pressure  
Sea Level Pressure 30.57 in    
Wind  
Wind Speed 8 mph (NNE)    
Max Wind Speed 12 mph    
Max Gust Speed 20 mph    
Visibility 9 miles    
Events      
T = Trace of Precipitation, MM = Missing Value Source: NWS Daily Summary

Daily Weather History Graph

Daily Weather History Graph

Search for Another Location

Airport or City:

Trip Planner

Search our weather history database for the weather conditions in past years. The results will help you decide how hot, cold, wet, or windy it might be!

Date:

Astronomy

Nov. 18, 2012 Rise Set
Actual Time 6:52 AM EST 4:49 PM EST
Civil Twilight 6:23 AM EST 5:18 PM EST
Nautical Twilight 5:51 AM EST 5:50 PM EST
Astronomical Twilight 5:19 AM EST 6:22 PM EST
Moon 11:18 AM EST (11/18) 10:05 PM EST (11/18)
Length of Visible Light 10h 54m
Length of Day
9h 56m
Waxing Crescent, 30% of the Moon is Illuminated
Nov 18
Waxing Crescent
Nov 20
First Quarter
Nov 28
Full
Dec 6
Last Quarter
Dec 13
New

Hourly Weather History & Observations

Time (EST) Temp. Windchill Dew Point Humidity Pressure Visibility Wind Dir Wind Speed Gust Speed Precip Events Conditions
12:54 AM 48.0 °F - 39.9 °F 74% 30.58 in 10.0 mi NE 5.8 mph - N/A   Clear
1:54 AM 46.9 °F - 41.0 °F 80% 30.59 in 10.0 mi NNE 6.9 mph - N/A   Clear
2:54 AM 48.0 °F - 41.0 °F 77% 30.58 in 10.0 mi NNE 5.8 mph - N/A   Clear
3:54 AM 46.9 °F - 41.0 °F 80% 30.58 in 9.0 mi NNE 6.9 mph - N/A   Clear
4:54 AM 46.0 °F 43.1 °F 39.9 °F 79% 30.60 in 9.0 mi NNE 5.8 mph - N/A   Clear
5:54 AM 46.0 °F 43.1 °F 39.9 °F 79% 30.61 in 8.0 mi North 5.8 mph - N/A   Clear
6:54 AM 46.0 °F 42.5 °F 39.9 °F 79% 30.60 in 7.0 mi North 6.9 mph - N/A   Clear
7:54 AM 46.0 °F 41.4 °F 39.0 °F 76% 30.61 in 6.0 mi North 9.2 mph - N/A   Haze
8:54 AM 46.9 °F - 39.0 °F 74% 30.61 in 6.0 mi NNE 8.1 mph - N/A   Haze
9:54 AM 48.0 °F - 37.0 °F 66% 30.61 in 8.0 mi NNE 11.5 mph - N/A   Clear
10:54 AM 50.0 °F - 39.0 °F 66% 30.61 in 9.0 mi NNE 8.1 mph - N/A   Clear
11:54 AM 51.1 °F - 39.0 °F 63% 30.58 in 10.0 mi NE 9.2 mph - N/A   Clear
12:54 PM 53.1 °F - 39.0 °F 59% 30.56 in 10.0 mi NNE 8.1 mph - N/A   Partly Cloudy
1:54 PM 53.1 °F - 39.0 °F 59% 30.54 in 10.0 mi NE 11.5 mph - N/A   Partly Cloudy
2:54 PM 52.0 °F - 39.9 °F 63% 30.54 in 10.0 mi NNE 10.4 mph - N/A   Clear
3:54 PM 52.0 °F - 41.0 °F 66% 30.54 in 10.0 mi NE 9.2 mph - N/A   Overcast
4:54 PM 52.0 °F - 42.1 °F 69% 30.53 in 10.0 mi NNE 5.8 mph - N/A   Overcast
5:54 PM 52.0 °F - 41.0 °F 66% 30.54 in 10.0 mi NNE 8.1 mph - N/A   Overcast
6:54 PM 51.1 °F - 39.9 °F 66% 30.54 in 10.0 mi NNE 9.2 mph - N/A   Overcast
7:54 PM 51.1 °F - 41.0 °F 68% 30.55 in 10.0 mi NNE 8.1 mph - N/A   Overcast
8:54 PM 51.1 °F - 39.9 °F 66% 30.53 in 10.0 mi NE 11.5 mph 19.6 mph N/A   Overcast
9:54 PM 50.0 °F - 39.9 °F 68% 30.53 in 10.0 mi NNE 8.1 mph - N/A   Clear
10:54 PM 50.0 °F - 39.9 °F 68% 30.52 in 10.0 mi NNE 10.4 mph - N/A   Clear
11:54 PM 50.0 °F - 39.9 °F 68% 30.50 in 10.0 mi North 8.1 mph - N/A   Mostly Cloudy